FENGYUN 1C DEB

Satellite information

Favourite Embed

Satellite Type and Status

DEBRISIN ORBIT

Key statistics

Satellite FENGYUN 1C DEB at a glance.

Uptime

9668

Days in orbit

Revolutions

≈ 14.2

Per day

Orbit

SSO

Sun Synchronous Orbit

Inclination

98.5

Latest

Satellite identification and parameters

Extended collection of information and parameters for FENGYUN 1C DEB.

Object identification

Identified? True

Debris? True

Object name: FENGYUN 1C DEB

International designator: 1999-025DTD

Object number (NORAD): 36180

Object ID (CCSDS): 36180

Country: PEOPLES REPUBLIC OF CHINA (PRC)

Current information (Y/N): Y

RCS size: SMALL

Orbital parameters

Period: 101.377 minutes

Inclination: 98.4622 deg

SMA: 7201.99 km

Apoapsis: 976.546 km

Periapsis: 671.163 km

RAAN: 357.8586 deg

Eccentricy: 0.02120125

Argument of periapsis: 189.6966 deg

Mean anomaly: 170.009 deg

Mean motion: 14.2044373 rev/day

Mean motion (dot): 0.00003214 rev/day2

B* drag term: 0.0012110995 1/REarth

Two-line elements (TLE)

Creation date: Oct. 19, 2025, 2:20 a.m.

Reference frame: TEME

Reference center: EARTH

Epoch: Oct. 18, 2025, 10:10 p.m. UTC

TLE line 0: 0 FENGYUN 1C DEB

TLE line 1: 1 36180U 99025DTD 25291.92365350 .00003214 00000-0 12111-2 0 9993

TLE line 2: 2 36180 98.4622 357.8586 0212012 189.6966 170.0090 14.20443730698059

Live tracking on map

Real-time ground track for satellite FENGYUN 1C DEB.

In-orbit conjunctions

A list of the most updated potential collisions computed for object FENGYUN 1C DEB.

Target Orbit TCA Probability of collision Miss distance Type
SL-8 R/B LEO 2025-03-04 05:24:48 0.0001451734 369.0 (m) ROCKET BODY
THORAD AGENA D DEB SSO 2024-11-10 19:25:34 0.0001528715 631.0 (m) DEBRIS

Associated space launch

Chinese polar orbiting meteorological satellite

FENGYUN 1C DEB was lifted into orbit during the mission ‘Long March 4B | Feng Yun 1C’, on board a Long March 4B space rocket.

The launch took place on May 10, 1999, 1:33 a.m. from Launch Complex 7.

For more information about the launch, click the button.

Launch to space Long March 4B | Feng Yun 1C
Long March 4B | Feng Yun 1C

Agency: N/A

Status: Launch Successful

Launch date: May 10, 1999, 1:33 a.m. UTC

Rocket: Long March 4B

Launch pad: Launch Complex 7

Location: Taiyuan Satellite Launch Center, People's Republic of China

...

Latest news about this satellite

There are no fresh news available about this satellite. Check back as we update our databases every day.


Newsletter sign-up

Weekly statistics, charts and insights to help you stay on top of the space industry.